Tracking 25612 objects as of 19-May-2022
HD Live streaming from Space Station
objects crossing your sky now

SL-14 DEB

Track SL-14 DEB now!
10-day predictions


NORAD ID: 45292
Int'l Code: 1991-056AE
Perigee: 1,059.8 km
Apogee: 1,265.7 km
Inclination: 82.6 °
Period: 108.5 minutes
Semi major axis: 7533 km
RCS: Unknown
Launch date: August 15, 1991
Source: Commonwealth of Independent States (former USSR) (CIS)
Launch site: PLESETSK MISSILE AND SPACE COMPLEX (PKMTR)

Note: This is SATELLITE DEBRIS
aabbcc
Your satellite tracking list
Your tracking list is empty




NASA's NSSDC Master Catalog

Two Line Element Set (TLE):
1 45292U 91056AE  22138.22400927  .00004853  00000-0  10204-1 0  9993
2 45292  82.6310 109.7218 0136646  68.6213 292.9433 13.27651867108652
Source of the keplerian elements: AFSPC